Home   Weather   Naples   Past weeks

Flag for USA Past Weather in Naples, Florida, USA — Yesterday and Last 2 Weeks

80 °F

Scattered clouds.

Feels Like: 81 °F
Forecast: 67 / 83 °F
Wind: 10 mph from East

Location: Naples Municipal

Current Time: Oct 25, 2016 at 6:48:46 PM

Latest Report: Oct 25, 2016 at 5:53 PM

Visibility: 10 mi

Pressure: 30.07 "Hg

Humidity: 52%

Dew Point: 61 °F

Location of NaplesLocation

Past Weather in Naples — Graph


Naples Temperature Yesterday

Maximum temperature yesterday: 82 °F (at 2:53 PM)
Minimum temperature yesterday: 63 °F (at 6:53 AM)
Average temperature yesterday: 72 °F

High & Low Weather Summary for the Past Weeks

High90 °F (Oct 16, 2:53 PM)97% (Oct 15, 7:53 AM)30.21 "Hg (Oct 15, 7:53 AM)
Low59 °F (Oct 23, 4:53 AM)28% (Oct 22, 5:53 PM)29.80 "Hg (Oct 21, 3:53 PM)
Average77 °F69%30.00 "Hg
* Reported Oct 10 4:53 PM — Oct 25 4:53 PM, Naples, Weather by CustomWeather, © 2016

Note: Actual official high and low records may vary slightly from our data, if they occured in-between our weather recording intervals... More about our weather records


Naples Weather History for the Previous 24 Hours

Scroll right to see more
Time TempWeatherWind HumidityBarometerVisibility
4:53 PM
Tue, Oct 25
81 °FPassing clouds.12 mph51%30.06 "Hg10 mi
3:53 PM82 °FScattered clouds.13 mph49%30.06 "Hg10 mi
2:53 PM82 °FPassing clouds.13 mph49%30.09 "Hg10 mi
1:53 PM82 °FPassing clouds.15 mph49%30.10 "Hg10 mi
12:53 PM81 °FPassing clouds.14 mph49%30.14 "Hg10 mi
11:53 AM81 °FPassing clouds.18 mph45%30.15 "Hg10 mi
10:53 AM78 °FSunny.12 mph54%30.15 "Hg10 mi
9:53 AM74 °FSunny.13 mph60%30.14 "Hg10 mi
8:53 AM69 °FPassing clouds.12 mph70%30.14 "Hg10 mi
7:53 AM66 °FSunny.8 mph78%30.12 "Hg10 mi
6:53 AM65 °FPassing clouds.5 mph85%30.12 "Hg10 mi
5:53 AM66 °FClear.6 mph81%30.10 "Hg10 mi
4:53 AM67 °FPassing clouds.7 mph79%30.09 "Hg10 mi
3:53 AM66 °FClear.3 mph81%30.10 "Hg10 mi
2:53 AM67 °FClear.6 mph81%30.11 "Hg10 mi
1:53 AM68 °FPassing clouds.6 mph84%30.13 "Hg10 mi
12:53 AM69 °FPassing clouds.7 mph81%30.14 "Hg10 mi
11:53 PM
Mon, Oct 24
69 °FPassing clouds.7 mph79%30.15 "Hg10 mi
10:53 PM70 °FPassing clouds.7 mph73%30.15 "Hg10 mi
9:53 PM71 °FClear.8 mph71%30.14 "Hg10 mi
8:53 PM72 °FClear.6 mph66%30.13 "Hg10 mi
7:53 PM74 °FClear.5 mph60%30.12 "Hg10 mi
6:53 PM76 °FClear.6 mph56%30.11 "Hg10 mi
Weather by CustomWeather, © 2016

See weather overviewHow to use our weather pages